Regional Weather Roundup
Issued by NWS

Home | Current Version | Previous Version | Text Only | Print | Product List | Glossary On
Versions: 1 2 3 4 5 6 7 8 9 10 11 12 13 14 15 16 17 18 19 20 21 22 23 24 25 26 27 28 29 30 31 32 33 34 35 36 37 38 39 40 41 42 43 44 45 46 47 48 49 50
000
ASUS43 KIND 221600
RWRIN

WEATHER ROUNDUP FOR INDIANA
NATIONAL WEATHER SERVICE INDIANAPOLIS IN
1200 PM EDT FRI SEP 22 2017

NOTE: "FAIR" INDICATES FEW OR NO CLOUDS BELOW 12,000 FEET WITH NO
SIGNIFICANT WEATHER AND/OR OBSTRUCTIONS TO VISIBILITY.

* - STATION DOES NOT REPORT WEATHER SUCH AS PRECIPITATION OR FOG.

+ - STATION NOT QUALITY CONTROLLED BY THE NATIONAL WEATHER SERVICE.
    USE DATA WITH CAUTION...ESPECIALLY DEWPOINT AND RELATIVE
    HUMIDITY OBSERVATIONS.

INZ001>003-010>013-019-020-221700-
NORTHWEST INDIANA

CITY           SKY/WX    TMP DP  RH WIND       PRES   REMARKS
GARY /AIRPORT/ MOSUNNY   88  64  45 VRB6      30.10S
KNOX *+        MOSUNNY   86  68  54 CALM      30.11F
MICHIGAN CITY+ SUNNY     86  68  54 SW3       30.11S
MONTICELLO +   SUNNY     87  69  55 NW3       30.11S
RENSSELAER +   SUNNY     86  61  42 W6        30.12R

$$

LMZ046-743>745-221700-
SOUTHERN LAKE MICHIGAN

STATION/POSITION TIME  TEMP    WIND        PRES    WAVE
                       AIR SEA DIR/SP/G            HT
                 (UTC) (F)     (DEG/KT/KT) (MB)    (FT)
BURNS HARBOR     1540   81     250/  3/  5 1019.3S
MICHIGAN CITY    1530   82     220/  4/  4   N/A
5NW MICH CITY    1550   78 71  190/  4/  4   N/A     0

$$

INZ004-005-014>016-021>024-221700-
NORTH CENTRAL INDIANA

CITY           SKY/WX    TMP DP  RH WIND       PRES   REMARKS
ELKHART        SUNNY     84  70  61 CALM      30.12S
GOSHEN         SUNNY     86  68  54 W5        30.12S
SOUTH BEND     SUNNY     86  70  58 W6        30.12S
WARSAW +       SUNNY     84  68  58 CALM      30.12S

$$

INZ006>009-017-018-025>027-221700-
NORTHEAST INDIANA

CITY           SKY/WX    TMP DP  RH WIND       PRES   REMARKS
AUBURN +       SUNNY     82  68  61 NW3       30.13S
FORT WAYNE     MOSUNNY   86  71  60 CALM      30.13S
KENDALLVILLE + SUNNY     84  70  63 CALM      30.14S

$$

INZ028-029-035-036-043>045-051>053-221700-
WEST CENTRAL INDIANA

CITY           SKY/WX    TMP DP  RH WIND       PRES   REMARKS
GREENCASTLE +  SUNNY     86  66  51 CALM      30.12F
LAFAYETTE      SUNNY     85  71  63 CALM      30.11S
TERRE HAUTE    SUNNY     88  68  51 N5        30.11S

$$

INZ030>032-037>040-046>048-054>057-064-065-221700-
CENTRAL INDIANA

CITY           SKY/WX    TMP DP  RH WIND       PRES   REMARKS
COLUMBUS       SUNNY     84  64  51 CALM      30.12F
INDIANAPOLIS   MOSUNNY   87  70  56 VRB3      30.12S
-EAGLE CREEK   SUNNY     86  69  56 NW3       30.12S
KOKOMO +       SUNNY     86  70  58 NW6       30.13S
MT COMFORT *+  SUNNY     84  68  58 N5        30.13S
SHELBYVILLE    SUNNY     87  69  54 VRB3      30.12S

$$

INZ033-034-041-042-049-050-058-059-221700-
EAST CENTRAL INDIANA

CITY           SKY/WX    TMP DP  RH WIND       PRES   REMARKS
MUNCIE         SUNNY     86  70  58 VRB3      30.13S
RICHMOND +     SUNNY     82  70  65 W3        30.15S

$$

INZ060-061-067>069-081>083-085>088-221700-
SOUTHWEST INDIANA

CITY           SKY/WX    TMP DP  RH WIND       PRES   REMARKS
EVANSVILLE     SUNNY     86  69  56 CALM      30.09F
HUNTINGBURG +  PTSUNNY   85  71  63 E6        30.11S

$$

INZ062-063-066-070>080-084-089>092-221700-
SOUTH CENTRAL AND SOUTHEAST INDIANA

CITY           SKY/WX    TMP DP  RH WIND       PRES   REMARKS
BLOOMINGTON    SUNNY     85  68  56 CALM      30.12S
MADISON *+     MOSUNNY   86  66  51 CALM      30.14F
SEYMOUR +      SUNNY     88  66  48 CALM      30.11S

$$





USA.gov is the U.S. government's official web portal to all federal, state and local government web resources and services.